RCAMPBELL Weather Reports


time (UTC)temp
C
wind
direction
speed
KPH
gust
KPH
rain 1hr
cm
rain 24hr
cm
rain mn
cm
humidity
%
barometer
mb
20260505053037 15 182 33.8 49.9 0.00 0.00 0.00 77 1008.3
20260505051538 15 179 37.0 54.7 0.00 0.00 0.00 78 1008.0
20260505041537 16 174 22.5 40.2 0.00 0.00 0.00 79 1007.7
20260505040051 16 161 22.5 38.6 0.00 0.00 0.00 79 1007.5
20260505034543 16 189 24.1 33.8 0.00 0.00 0.00 80 1007.4
20260505033038 16 190 17.7 29.0 0.00 0.00 0.00 79 1007.2
20260505031547 17 187 14.5 22.5 0.00 0.00 0.00 75 1007.1
20260505030042 17 182 1.6 14.5 0.00 0.00 0.00 72 1007.0
20260505024537 18 159 9.7 17.7 0.00 0.00 0.00 71 1006.8
20260505023037 19 187 12.9 17.7 0.00 0.00 0.00 66 1007.0
20260505021537 19 168 14.5 27.4 0.00 0.00 0.00 65 1007.1
20260505020041 20 165 20.9 25.7 0.00 0.00 0.00 60 1007.0
20260505014542 20 149 17.7 30.6 0.00 0.00 0.00 64 1007.2
20260505013037 19 186 12.9 20.9 0.00 0.00 0.00 66 1007.3
20260505011539 20 190 8.0 14.5 0.00 0.00 0.00 65 1007.5
20260505010045 19 155 11.3 20.9 0.00 0.00 0.00 68 1007.5
20260505004538 20 184 16.1 25.7 0.00 0.00 0.00 65 1007.5
20260505003038 20 141 9.7 16.1 0.00 0.00 0.00 67 1007.6
20260505001538 20 138 8.0 12.9 0.00 0.00 0.00 64 1007.7
20260505000048 21 188 8.0 14.5 0.00 0.00 0.00 64 1007.7
20260504234536 21 199 11.3 20.9 0.00 0.00 0.00 61 1007.8
20260504233037 22 142 9.7 16.1 0.00 0.00 0.00 60 1007.8
20260504231538 22 121 6.4 12.9 0.00 0.00 0.00 58 1008.0
20260504230037 22 153 6.4 12.9 0.00 0.00 0.00 58 1008.1
20260504224537 22 188 8.0 11.3 0.00 0.00 0.00 55 1008.2
20260504223038 22 144 6.4 12.9 0.00 0.00 0.00 59 1008.2
20260504221540 22 155 9.7 14.5 0.00 0.00 0.00 59 1008.5
20260504220046 21 127 8.0 16.1 0.00 0.00 0.00 62 1008.5
20260504214538 21 194 9.7 16.1 0.00 0.00 0.00 62 1008.6
20260504213045 21 187 8.0 12.9 0.00 0.00 0.00 61 1008.7
20260504211542 21 163 8.0 16.1 0.00 0.00 0.00 60 1008.8
20260504210039 21 169 9.7 14.5 0.00 0.00 0.00 64 1008.9
20260504204542 20 172 9.7 17.7 0.00 0.00 0.00 65 1009.0
20260504203037 20 161 9.7 17.7 0.00 0.00 0.00 62 1009.0
20260504201538 20 171 9.7 16.1 0.00 0.00 0.00 67 1009.1
20260504200037 20 153 6.4 12.9 0.00 0.00 0.00 67 1009.1
20260504194538 20 182 6.4 14.5 0.00 0.00 0.00 70 1009.2
20260504193053 19 167 6.4 14.5 0.00 0.00 0.00 71 1009.2
20260504191537 20 175 6.4 12.9 0.00 0.00 0.00 71 1009.1
20260504190041 19 173 6.4 14.5 0.00 0.00 0.00 74 1009.2
20260504184537 19 140 8.0 14.5 0.00 0.00 0.00 74 1009.3
20260504183049 19 167 8.0 16.1 0.00 0.00 0.00 72 1009.2
20260504181538 19 145 6.4 14.5 0.00 0.00 0.00 71 1009.2
20260504180058 18 182 6.4 16.1 0.00 0.00 0.00 75 1009.2
20260504174538 17 193 8.0 12.9 0.00 0.00 0.00 79 1009.1
20260504173039 17 175 3.2 8.0 0.00 0.00 0.00 78 1009.3
20260504171538 16 150 3.2 6.4 0.00 0.00 0.00 76 1009.1
20260504081542 13 0 0.0 1.6 0.00 0.00 0.00 82 1008.1